Track SAR LUPE 3 now! 10-day predictions SAR LUPE 3 is classified as:
1 32283U 07053A 25199.83136096 .00058193 00000-0 54490-3 0 9996 2 32283 98.1621 351.4788 0009091 230.2505 129.7953 15.67013573988435